Tracking 30995 objects as of 5-Jul-2025
HD Live streaming from Space Station
objects crossing your sky now

CZ-3B DEB

Track CZ-3B DEB now!


NORAD ID: 39337
Int'l Code: 2010-042J
Perigee: 740.9 km
Apogee: 42,750.6 km
Inclination: 24.4 °
Period: 782.0 minutes
Semi major axis: 28116 km
RCS: 0.027 m2 (small)
Launch date: September 4, 2010
Source: People's Republic of China (PRC)
Launch site: Xichang Space Center, China (XSC)

Note: This is SATELLITE DEBRIS
Your satellite tracking list
Your tracking list is empty




NASA's NSSDC Master Catalog

Two Line Element Set (TLE):
1 39337U 10042J   25186.15370752  .00000034  00000-0  75513-3 0  9995
2 39337  24.3893 208.0616 7470594 135.3591 317.1207  1.84143179 76307
Source of the keplerian elements: AFSPC